ETD597 OMAA-LLBG

Flight info

Callsign ETD597
Flight time 3h 5m
Altitude 34000
Route BOSEV N563 ALPOB L768 AAR V45 TRF R652 OBROD Q163 GENEX L53 QAA A412 OSAMA N134 SALAM
Aircraft A321/M-SDE3FGHIRWY/LB1

Departure

Time 2026-05-06 14:08
Airport Zayed International Airport (OMAA)

Arrival

Time 2026-05-06 17:14
Airport Ben Gurion International Airport (LLBG)
Time Latitude Longitude Altitude Speed Heading
2026-05-06 13:33 24.42478 54.65243 77 ft 0 kts 217°
2026-05-06 13:58 24.42484 54.65247 63 ft 2 kts 217°
2026-05-06 13:59 24.42503 54.65264 73 ft 4 kts 217°
2026-05-06 13:59 24.42525 54.65281 68 ft 4 kts 203°
2026-05-06 13:59 24.42552 54.65289 68 ft 4 kts 169°
2026-05-06 13:59 24.42544 54.65306 69 ft 4 kts 123°
2026-05-06 14:00 24.42529 54.65329 73 ft 3 kts 129°
2026-05-06 14:00 24.42525 54.65335 70 ft 0 kts 129°
2026-05-06 14:03 24.42524 54.65336 76 ft 1 kts 129°
2026-05-06 14:03 24.42494 54.65378 74 ft 16 kts 128°
2026-05-06 14:04 24.42440 54.65452 74 ft 19 kts 128°
2026-05-06 14:04 24.42329 54.65608 69 ft 20 kts 128°
2026-05-06 14:04 24.42245 54.65725 76 ft 18 kts 126°
2026-05-06 14:04 24.42265 54.65821 76 ft 14 kts 40°
2026-05-06 14:05 24.42340 54.65886 73 ft 14 kts 40°
2026-05-06 14:05 24.42385 54.65976 76 ft 14 kts 90°
2026-05-06 14:05 24.42342 54.66074 71 ft 15 kts 127°
2026-05-06 14:05 24.42299 54.66134 66 ft 15 kts 128°
2026-05-06 14:06 24.42234 54.66227 67 ft 16 kts 128°
2026-05-06 14:06 24.42166 54.66323 74 ft 16 kts 128°
2026-05-06 14:06 24.42096 54.66423 70 ft 17 kts 128°
2026-05-06 14:06 24.42038 54.66530 72 ft 17 kts 97°
2026-05-06 14:07 24.42091 54.66638 69 ft 17 kts 37°
2026-05-06 14:07 24.42183 54.66670 68 ft 11 kts 355°
2026-05-06 14:07 24.42240 54.66620 66 ft 10 kts 308°
2026-05-06 14:07 24.42286 54.66554 73 ft 17 kts 308°
2026-05-06 14:08 24.42529 54.66214 73 ft 95 kts 308°
2026-05-06 14:08 24.43074 54.65446 67 ft 158 kts 308°
2026-05-06 14:08 24.43819 54.64347 270 ft 191 kts 310°
2026-05-06 14:08 24.44593 54.63166 1030 ft 190 kts 308°
2026-05-06 14:09 24.45404 54.62018 1691 ft 191 kts 308°
2026-05-06 14:09 24.46255 54.60851 1979 ft 194 kts 308°
2026-05-06 14:09 24.47081 54.59719 2446 ft 191 kts 307°
2026-05-06 14:09 24.47915 54.58569 2755 ft 194 kts 307°
2026-05-06 14:10 24.48763 54.57392 3062 ft 199 kts 307°
2026-05-06 14:10 24.49626 54.56185 3373 ft 204 kts 307°
2026-05-06 14:10 24.50513 54.54938 3692 ft 210 kts 307°
2026-05-06 14:10 24.51418 54.53662 4028 ft 214 kts 306°
2026-05-06 14:11 24.52339 54.52364 4364 ft 218 kts 307°
2026-05-06 14:11 24.53280 54.51037 4696 ft 222 kts 306°
2026-05-06 14:11 24.54236 54.49689 5026 ft 225 kts 306°
2026-05-06 14:11 24.55206 54.48320 5365 ft 229 kts 306°
2026-05-06 14:12 24.56189 54.46930 5701 ft 232 kts 306°
2026-05-06 14:12 24.57193 54.45509 5971 ft 241 kts 307°
2026-05-06 14:12 24.58252 54.44012 6204 ft 256 kts 307°
2026-05-06 14:12 24.59381 54.42415 6399 ft 273 kts 307°
2026-05-06 14:13 24.60584 54.40717 6614 ft 289 kts 307°
2026-05-06 14:13 24.61836 54.38951 6845 ft 295 kts 307°
2026-05-06 14:13 24.63100 54.37165 7134 ft 297 kts 308°
2026-05-06 14:13 24.64365 54.35379 7528 ft 296 kts 308°
2026-05-06 14:14 24.65637 54.33589 8006 ft 298 kts 309°
2026-05-06 14:14 24.66915 54.31790 8500 ft 299 kts 309°
2026-05-06 14:14 24.68192 54.29988 8992 ft 299 kts 309°
2026-05-06 14:14 24.69454 54.28205 9482 ft 300 kts 309°
2026-05-06 14:15 24.70735 54.26394 9950 ft 301 kts 310°
2026-05-06 14:15 24.72021 54.24576 10412 ft 302 kts 310°
2026-05-06 14:15 24.73316 54.22749 10879 ft 304 kts 310°
2026-05-06 14:15 24.74620 54.20907 11340 ft 307 kts 310°
2026-05-06 14:16 24.75949 54.19027 11731 ft 315 kts 310°
2026-05-06 14:16 24.77305 54.17105 12125 ft 322 kts 309°
2026-05-06 14:16 24.78695 54.15136 12523 ft 329 kts 309°
2026-05-06 14:16 24.80109 54.13130 12919 ft 335 kts 309°
2026-05-06 14:17 24.81552 54.11079 13325 ft 342 kts 309°
2026-05-06 14:17 24.83017 54.08995 13714 ft 347 kts 309°
2026-05-06 14:17 24.84403 54.06788 14065 ft 354 kts 303°
2026-05-06 14:17 24.85702 54.04468 14447 ft 359 kts 303°
2026-05-06 14:18 24.87024 54.02112 14823 ft 364 kts 303°
2026-05-06 14:18 24.88363 53.99725 15194 ft 369 kts 303°
2026-05-06 14:18 24.89721 53.97308 15582 ft 374 kts 303°
2026-05-06 14:18 24.91097 53.94858 15972 ft 378 kts 303°
2026-05-06 14:19 24.92487 53.92375 16353 ft 383 kts 302°
2026-05-06 14:19 24.93892 53.89860 16754 ft 387 kts 302°
2026-05-06 14:19 24.95312 53.87318 17158 ft 392 kts 302°
2026-05-06 14:19 24.96747 53.84748 17564 ft 396 kts 302°
2026-05-06 14:20 24.98193 53.82152 17979 ft 400 kts 301°
2026-05-06 14:20 24.99634 53.79565 18341 ft 404 kts 301°
2026-05-06 14:20 25.01127 53.76932 18698 ft 406 kts 304°
2026-05-06 14:20 25.02938 53.74485 19069 ft 407 kts 314°
2026-05-06 14:21 25.04938 53.72336 19437 ft 408 kts 315°
2026-05-06 14:21 25.06976 53.70153 19809 ft 408 kts 315°
2026-05-06 14:21 25.09011 53.67967 20193 ft 409 kts 315°
2026-05-06 14:21 25.11048 53.65778 20568 ft 410 kts 315°
2026-05-06 14:22 25.13101 53.63576 20960 ft 412 kts 315°
2026-05-06 14:22 25.15158 53.61368 21356 ft 414 kts 315°
2026-05-06 14:22 25.17224 53.59152 21751 ft 415 kts 315°
2026-05-06 14:22 25.19294 53.56926 22158 ft 416 kts 315°
2026-05-06 14:23 25.21371 53.54692 22571 ft 417 kts 315°
2026-05-06 14:23 25.23451 53.52458 22987 ft 417 kts 315°
2026-05-06 14:23 25.25534 53.50220 23403 ft 418 kts 314°
2026-05-06 14:23 25.27616 53.47979 23746 ft 418 kts 314°
2026-05-06 14:24 25.29702 53.45733 24101 ft 418 kts 314°
2026-05-06 14:24 25.31782 53.43489 24456 ft 419 kts 314°
2026-05-06 14:24 25.33865 53.41243 24816 ft 418 kts 314°
2026-05-06 14:24 25.35950 53.38993 25180 ft 418 kts 313°
2026-05-06 14:25 25.38028 53.36747 25551 ft 418 kts 313°
2026-05-06 14:25 25.40107 53.34499 25929 ft 417 kts 313°
2026-05-06 14:25 25.42179 53.32261 26309 ft 417 kts 313°
2026-05-06 14:25 25.44252 53.30029 26695 ft 416 kts 313°
2026-05-06 14:26 25.46322 53.27800 27082 ft 414 kts 312°
2026-05-06 14:26 25.48383 53.25576 27485 ft 413 kts 312°
2026-05-06 14:26 25.50436 53.23356 27887 ft 412 kts 311°
2026-05-06 14:26 25.52452 53.21173 28296 ft 410 kts 311°
2026-05-06 14:27 25.54484 53.18967 28702 ft 408 kts 311°
2026-05-06 14:27 25.56530 53.16742 29134 ft 406 kts 311°
2026-05-06 14:27 25.58512 53.14586 29547 ft 403 kts 310°
2026-05-06 14:27 25.60509 53.12415 29963 ft 401 kts 310°
2026-05-06 14:28 25.62501 53.10248 30243 ft 401 kts 310°
2026-05-06 14:28 25.64492 53.08079 30483 ft 402 kts 310°
2026-05-06 14:28 25.66489 53.05901 30705 ft 403 kts 310°
2026-05-06 14:28 25.68485 53.03724 30934 ft 403 kts 309°
2026-05-06 14:29 25.70308 53.01387 31178 ft 398 kts 301°
2026-05-06 14:29 25.74326 52.93423 31898 ft 395 kts 294°
2026-05-06 14:30 25.75604 52.90725 32146 ft 395 kts 294°
2026-05-06 14:30 25.76884 52.88029 32395 ft 395 kts 294°
2026-05-06 14:30 25.78163 52.85333 32642 ft 395 kts 293°
2026-05-06 14:30 25.79438 52.82634 32897 ft 395 kts 293°
2026-05-06 14:31 25.80710 52.79938 33152 ft 395 kts 293°
2026-05-06 14:31 25.81982 52.77236 33407 ft 394 kts 293°
2026-05-06 14:31 25.83249 52.74543 33657 ft 394 kts 293°
2026-05-06 14:31 25.84524 52.71833 33783 ft 398 kts 293°
2026-05-06 14:32 25.87114 52.66316 33803 ft 409 kts 293°
2026-05-06 14:32 25.89773 52.60644 33805 ft 419 kts 293°
2026-05-06 14:33 25.92402 52.54849 33805 ft 421 kts 292°
2026-05-06 14:33 25.94950 52.48994 33808 ft 421 kts 291°
2026-05-06 14:34 25.97498 52.43143 33807 ft 421 kts 292°
2026-05-06 14:34 26.00073 52.37307 33812 ft 421 kts 292°
2026-05-06 14:35 26.02689 52.31475 33821 ft 422 kts 292°
2026-05-06 14:35 26.05311 52.25639 33825 ft 422 kts 292°
2026-05-06 14:36 26.07917 52.19796 33833 ft 421 kts 292°
2026-05-06 14:36 26.10511 52.13952 33835 ft 421 kts 292°
2026-05-06 14:37 26.13100 52.08112 33839 ft 421 kts 291°
2026-05-06 14:37 26.15684 52.02273 33840 ft 420 kts 291°
2026-05-06 14:38 26.18280 51.96433 33838 ft 421 kts 292°
2026-05-06 14:38 26.20901 51.90616 33843 ft 420 kts 291°
2026-05-06 14:39 26.23488 51.84780 33845 ft 420 kts 291°
2026-05-06 14:39 26.26047 51.78933 33847 ft 420 kts 291°
2026-05-06 14:40 26.28634 51.73102 33850 ft 420 kts 291°
2026-05-06 14:40 26.31224 51.67310 33853 ft 420 kts 291°
2026-05-06 14:41 26.33828 51.61491 33851 ft 419 kts 291°
2026-05-06 14:41 26.36424 51.55670 33854 ft 419 kts 291°
2026-05-06 14:42 26.38720 51.49743 33853 ft 414 kts 285°
2026-05-06 14:42 26.40647 51.43687 33852 ft 414 kts 285°
2026-05-06 14:43 26.42578 51.37629 33854 ft 414 kts 285°
2026-05-06 14:43 26.44509 51.31584 33852 ft 414 kts 285°
2026-05-06 14:44 26.46445 51.25530 33852 ft 414 kts 285°
2026-05-06 14:45 26.49338 51.16460 33850 ft 413 kts 284°
2026-05-06 14:45 26.51270 51.10417 33858 ft 413 kts 284°
2026-05-06 14:46 26.53189 51.04370 33857 ft 413 kts 284°
2026-05-06 14:46 26.55103 50.98321 33856 ft 413 kts 284°
2026-05-06 14:47 26.57017 50.92272 33858 ft 413 kts 284°
2026-05-06 14:47 26.58912 50.86251 33858 ft 413 kts 284°
2026-05-06 14:48 26.60788 50.80187 33859 ft 413 kts 283°
2026-05-06 14:48 26.62653 50.74120 33860 ft 413 kts 283°
2026-05-06 14:49 26.64518 50.68047 33862 ft 413 kts 283°
2026-05-06 14:49 26.66346 50.61962 33866 ft 413 kts 283°
2026-05-06 14:50 26.68139 50.55866 33863 ft 413 kts 282°
2026-05-06 14:50 26.69931 50.49770 33868 ft 413 kts 283°
2026-05-06 14:51 26.71643 50.43658 33869 ft 411 kts 281°
2026-05-06 14:51 26.73189 50.37509 33874 ft 410 kts 280°
2026-05-06 14:52 26.74716 50.31363 33876 ft 410 kts 280°
2026-05-06 14:52 26.76022 50.26267 33875 ft 410 kts 281°
2026-05-06 14:53 26.77792 50.20188 33876 ft 411 kts 283°
2026-05-06 14:53 26.79665 50.14141 33877 ft 411 kts 283°
2026-05-06 14:54 26.81510 50.08090 33884 ft 410 kts 282°
2026-05-06 14:54 26.83306 50.02029 33879 ft 410 kts 282°
2026-05-06 14:55 26.85093 49.95970 33879 ft 410 kts 282°
2026-05-06 14:55 26.86882 49.89918 33879 ft 410 kts 282°
2026-05-06 14:56 26.88679 49.83860 33876 ft 409 kts 282°
2026-05-06 14:56 26.90467 49.77805 33880 ft 409 kts 282°
2026-05-06 14:57 26.92254 49.71739 33880 ft 409 kts 282°
2026-05-06 14:57 26.94024 49.65725 33881 ft 409 kts 282°
2026-05-06 14:58 26.95803 49.59669 33882 ft 409 kts 282°
2026-05-06 14:58 26.97581 49.53611 33882 ft 409 kts 282°
2026-05-06 14:59 26.99354 49.47547 33886 ft 409 kts 282°
2026-05-06 14:59 27.01178 49.41493 33887 ft 413 kts 286°
2026-05-06 15:00 27.03942 49.35758 33889 ft 419 kts 292°
2026-05-06 15:00 27.06816 49.30071 33895 ft 419 kts 291°
2026-05-06 15:01 27.09679 49.24378 33898 ft 419 kts 291°
2026-05-06 15:01 27.12541 49.18680 33901 ft 419 kts 291°
2026-05-06 15:02 27.15405 49.12981 33906 ft 419 kts 291°
2026-05-06 15:02 27.18262 49.07275 33907 ft 419 kts 291°
2026-05-06 15:03 27.21099 49.01597 33907 ft 419 kts 291°
2026-05-06 15:03 27.23950 48.95886 33901 ft 419 kts 291°
2026-05-06 15:04 27.26797 48.90172 33902 ft 419 kts 291°
2026-05-06 15:04 27.29643 48.84459 33907 ft 419 kts 291°
2026-05-06 15:05 27.32485 48.78747 33911 ft 418 kts 291°
2026-05-06 15:05 27.35324 48.73033 33911 ft 418 kts 290°
2026-05-06 15:06 27.38157 48.67324 33907 ft 418 kts 290°
2026-05-06 15:06 27.40983 48.61605 33915 ft 418 kts 290°
2026-05-06 15:07 27.43806 48.55886 33917 ft 418 kts 290°
2026-05-06 15:07 27.46635 48.50167 33919 ft 418 kts 290°
2026-05-06 15:08 27.49458 48.44447 33918 ft 418 kts 290°
2026-05-06 15:08 27.52274 48.38727 33918 ft 417 kts 290°
2026-05-06 15:09 27.55079 48.33013 33920 ft 417 kts 290°
2026-05-06 15:09 27.57895 48.27299 33921 ft 417 kts 290°
2026-05-06 15:10 27.60708 48.21580 33921 ft 417 kts 290°
2026-05-06 15:10 27.63513 48.15869 33921 ft 416 kts 290°
2026-05-06 15:11 27.66314 48.10156 33923 ft 416 kts 290°
2026-05-06 15:11 27.69108 48.04440 33928 ft 416 kts 289°
2026-05-06 15:12 27.71879 47.98754 33921 ft 416 kts 289°
2026-05-06 15:12 27.74666 47.93037 33928 ft 416 kts 289°
2026-05-06 15:13 27.77454 47.87322 33919 ft 415 kts 289°
2026-05-06 15:13 27.80229 47.81599 33921 ft 415 kts 289°
2026-05-06 15:14 27.83004 47.75880 33913 ft 415 kts 289°
2026-05-06 15:14 27.85287 47.69997 33917 ft 404 kts 281°
2026-05-06 15:15 27.87144 47.63997 33917 ft 405 kts 281°
2026-05-06 15:15 27.89014 47.57984 33924 ft 405 kts 281°
2026-05-06 15:16 27.90880 47.51971 33927 ft 405 kts 281°
2026-05-06 15:16 27.92743 47.45955 33935 ft 405 kts 281°
2026-05-06 15:17 27.94601 47.39941 33936 ft 406 kts 281°
2026-05-06 15:17 27.96458 47.33910 33941 ft 406 kts 281°
2026-05-06 15:18 27.98305 47.27882 33940 ft 406 kts 281°
2026-05-06 15:18 28.00151 47.21886 33946 ft 406 kts 281°
2026-05-06 15:19 28.02009 47.15849 33949 ft 406 kts 280°
2026-05-06 15:19 28.03860 47.09805 33956 ft 406 kts 280°
2026-05-06 15:20 28.05705 47.03765 33956 ft 406 kts 280°
2026-05-06 15:20 28.07551 46.97714 33958 ft 406 kts 280°
2026-05-06 15:21 28.09387 46.91674 33957 ft 406 kts 280°
2026-05-06 15:21 28.11241 46.85635 33955 ft 407 kts 281°
2026-05-06 15:22 28.13242 46.79627 33956 ft 408 kts 282°
2026-05-06 15:22 28.15291 46.73625 33956 ft 408 kts 282°
2026-05-06 15:23 28.17313 46.67614 33954 ft 408 kts 282°
2026-05-06 15:23 28.19314 46.61585 33960 ft 409 kts 282°
2026-05-06 15:24 28.21309 46.55551 33960 ft 409 kts 282°
2026-05-06 15:24 28.23304 46.49510 33966 ft 409 kts 282°
2026-05-06 15:25 28.25290 46.43506 33975 ft 409 kts 282°
2026-05-06 15:25 28.27290 46.37460 33983 ft 409 kts 282°
2026-05-06 15:26 28.29285 46.31410 33992 ft 409 kts 282°
2026-05-06 15:26 28.31271 46.25368 34001 ft 408 kts 281°
2026-05-06 15:27 28.33248 46.19331 34002 ft 408 kts 281°
2026-05-06 15:27 28.35222 46.13297 34000 ft 407 kts 281°
2026-05-06 15:28 28.37285 46.07293 34001 ft 410 kts 284°
2026-05-06 15:28 28.39545 46.01340 34002 ft 410 kts 284°
2026-05-06 15:29 28.41807 45.95443 33996 ft 409 kts 284°
2026-05-06 15:29 28.44032 45.89495 33994 ft 409 kts 284°
2026-05-06 15:30 28.46225 45.83543 33991 ft 408 kts 283°
2026-05-06 15:30 28.48420 45.77598 33995 ft 408 kts 283°
2026-05-06 15:31 28.50619 45.71652 33991 ft 408 kts 283°
2026-05-06 15:31 28.52813 45.65705 33991 ft 408 kts 283°
2026-05-06 15:32 28.56100 45.56769 33988 ft 408 kts 283°
2026-05-06 15:32 28.58291 45.50817 33986 ft 408 kts 283°
2026-05-06 15:33 28.60483 45.44856 33992 ft 408 kts 283°
2026-05-06 15:33 28.62671 45.38877 33994 ft 408 kts 283°
2026-05-06 15:34 28.64833 45.32942 33986 ft 409 kts 283°
2026-05-06 15:34 28.67011 45.26958 33986 ft 409 kts 283°
2026-05-06 15:35 28.69193 45.20971 33993 ft 409 kts 283°
2026-05-06 15:35 28.71373 45.14975 33997 ft 410 kts 283°
2026-05-06 15:36 28.73556 45.08976 34002 ft 410 kts 283°
2026-05-06 15:36 28.75742 45.02968 34003 ft 410 kts 283°
2026-05-06 15:37 28.77922 44.96958 34001 ft 410 kts 283°
2026-05-06 15:37 28.80099 44.90936 34005 ft 411 kts 283°
2026-05-06 15:38 28.82269 44.84912 34001 ft 411 kts 283°
2026-05-06 15:38 28.84434 44.78886 34000 ft 411 kts 283°
2026-05-06 15:39 28.86949 44.72973 34003 ft 425 kts 295°
2026-05-06 15:39 28.90382 44.67452 34009 ft 426 kts 295°
2026-05-06 15:40 28.93775 44.61967 34007 ft 426 kts 295°
2026-05-06 15:40 28.97180 44.56433 34010 ft 426 kts 295°
2026-05-06 15:41 29.00588 44.50896 34011 ft 426 kts 295°
2026-05-06 15:41 29.03994 44.45357 34016 ft 426 kts 295°
2026-05-06 15:42 29.07394 44.39815 34008 ft 426 kts 295°
2026-05-06 15:42 29.10795 44.34270 34012 ft 426 kts 295°
2026-05-06 15:43 29.13620 44.29666 34016 ft 425 kts 295°
2026-05-06 15:43 29.17012 44.24121 34016 ft 425 kts 295°
2026-05-06 15:44 29.20395 44.18570 34023 ft 425 kts 295°
2026-05-06 15:44 29.23769 44.13020 34026 ft 425 kts 295°
2026-05-06 15:45 29.27155 44.07465 34033 ft 425 kts 295°
2026-05-06 15:45 29.30512 44.01956 34031 ft 424 kts 295°
2026-05-06 15:46 29.33890 43.96413 34029 ft 424 kts 295°
2026-05-06 15:46 29.37253 43.90871 34032 ft 424 kts 295°
2026-05-06 15:47 29.40616 43.85323 34034 ft 423 kts 295°
2026-05-06 15:47 29.43970 43.79779 34033 ft 423 kts 295°
2026-05-06 15:48 29.47318 43.74232 34033 ft 423 kts 295°
2026-05-06 15:48 29.50662 43.68685 34031 ft 422 kts 295°
2026-05-06 15:49 29.54001 43.63137 34034 ft 422 kts 295°
2026-05-06 15:49 29.57346 43.57592 34033 ft 422 kts 295°
2026-05-06 15:50 29.60677 43.52043 34028 ft 422 kts 295°
2026-05-06 15:50 29.63966 43.46469 34032 ft 420 kts 293°
2026-05-06 15:51 29.67129 43.40820 34032 ft 419 kts 292°
2026-05-06 15:51 29.70252 43.35155 34034 ft 419 kts 292°
2026-05-06 15:52 29.73381 43.29546 34039 ft 420 kts 293°
2026-05-06 15:52 29.76551 43.23900 34041 ft 420 kts 293°
2026-05-06 15:53 29.79715 43.18255 34045 ft 419 kts 293°
2026-05-06 15:53 29.82869 43.12600 34052 ft 419 kts 292°
2026-05-06 15:54 29.86015 43.06950 34045 ft 419 kts 293°
2026-05-06 15:54 29.89166 43.01303 34046 ft 419 kts 293°
2026-05-06 15:55 29.92304 42.95654 34043 ft 418 kts 292°
2026-05-06 15:55 29.95441 42.89995 34045 ft 418 kts 292°
2026-05-06 15:56 29.98569 42.84343 34045 ft 418 kts 292°
2026-05-06 15:56 30.01703 42.78688 34046 ft 419 kts 293°
2026-05-06 15:57 30.04843 42.73023 34045 ft 419 kts 292°
2026-05-06 15:57 30.07969 42.67351 34048 ft 419 kts 292°
2026-05-06 15:58 30.11068 42.61708 34046 ft 419 kts 292°
2026-05-06 15:58 30.14194 42.56028 34048 ft 419 kts 293°
2026-05-06 15:59 30.17321 42.50347 34048 ft 419 kts 293°
2026-05-06 15:59 30.20449 42.44651 34046 ft 419 kts 293°
2026-05-06 16:00 30.23572 42.38951 34050 ft 419 kts 293°
2026-05-06 16:00 30.26694 42.33245 34053 ft 419 kts 293°
2026-05-06 16:01 30.29808 42.27540 34055 ft 420 kts 293°
2026-05-06 16:01 30.32925 42.21826 34061 ft 420 kts 293°
2026-05-06 16:02 30.36039 42.16108 34058 ft 419 kts 293°
2026-05-06 16:02 30.39133 42.10437 34061 ft 419 kts 293°
2026-05-06 16:03 30.42238 42.04722 34062 ft 419 kts 293°
2026-05-06 16:03 30.45323 41.99019 34037 ft 417 kts 293°
2026-05-06 16:04 30.48400 41.93327 34040 ft 416 kts 293°
2026-05-06 16:04 30.51479 41.87641 34039 ft 416 kts 293°
2026-05-06 16:05 30.54555 41.81959 34038 ft 416 kts 293°
2026-05-06 16:05 30.57623 41.76274 34045 ft 416 kts 294°
2026-05-06 16:06 30.60686 41.70585 34055 ft 416 kts 293°
2026-05-06 16:06 30.63728 41.64931 34058 ft 416 kts 294°
2026-05-06 16:07 30.66791 41.59233 34063 ft 416 kts 294°
2026-05-06 16:07 30.69850 41.53535 34065 ft 416 kts 294°
2026-05-06 16:08 30.72906 41.47830 34070 ft 416 kts 294°
2026-05-06 16:08 30.75954 41.42123 34063 ft 415 kts 294°
2026-05-06 16:09 30.79004 41.36417 34061 ft 415 kts 294°
2026-05-06 16:09 30.82033 41.30708 34058 ft 415 kts 294°
2026-05-06 16:10 30.85067 41.24999 34058 ft 414 kts 294°
2026-05-06 16:10 30.88099 41.19301 34054 ft 414 kts 294°
2026-05-06 16:11 30.91007 41.13542 34052 ft 407 kts 287°
2026-05-06 16:11 30.93077 41.07467 34055 ft 404 kts 284°
2026-05-06 16:12 30.95134 41.01390 34055 ft 404 kts 284°
2026-05-06 16:12 30.97195 40.95309 34053 ft 403 kts 284°
2026-05-06 16:13 30.99244 40.89222 34057 ft 403 kts 284°
2026-05-06 16:13 31.01280 40.83132 34057 ft 403 kts 284°
2026-05-06 16:14 31.03305 40.77083 34062 ft 403 kts 284°
2026-05-06 16:14 31.05344 40.70998 34063 ft 403 kts 284°
2026-05-06 16:15 31.07372 40.64913 34064 ft 402 kts 284°
2026-05-06 16:15 31.09398 40.58836 34067 ft 402 kts 284°
2026-05-06 16:16 31.11415 40.52763 34066 ft 401 kts 284°
2026-05-06 16:16 31.13428 40.46687 34066 ft 401 kts 284°
2026-05-06 16:17 31.15439 40.40612 34070 ft 401 kts 284°
2026-05-06 16:17 31.17443 40.34540 34054 ft 400 kts 284°
2026-05-06 16:18 31.19445 40.28481 34056 ft 400 kts 284°
2026-05-06 16:18 31.21446 40.22420 34059 ft 400 kts 284°
2026-05-06 16:19 31.23427 40.16405 34059 ft 399 kts 284°
2026-05-06 16:19 31.25414 40.10346 34059 ft 399 kts 284°
2026-05-06 16:20 31.27392 40.04295 34064 ft 398 kts 284°
2026-05-06 16:20 31.29372 39.98250 34061 ft 398 kts 284°
2026-05-06 16:21 31.31343 39.92213 34068 ft 397 kts 284°
2026-05-06 16:21 31.33306 39.86183 34066 ft 396 kts 284°
2026-05-06 16:22 31.35252 39.80194 34067 ft 396 kts 284°
2026-05-06 16:22 31.37218 39.74136 34062 ft 396 kts 284°
2026-05-06 16:23 31.39153 39.68159 34071 ft 395 kts 284°
2026-05-06 16:23 31.41093 39.62145 34064 ft 395 kts 284°
2026-05-06 16:24 31.43028 39.56137 34067 ft 394 kts 284°
2026-05-06 16:24 31.44977 39.50140 34071 ft 394 kts 284°
2026-05-06 16:25 31.46932 39.44146 34069 ft 394 kts 284°
2026-05-06 16:25 31.48874 39.38157 34075 ft 393 kts 284°
2026-05-06 16:26 31.50812 39.32166 34079 ft 393 kts 284°
2026-05-06 16:26 31.52749 39.26183 34075 ft 392 kts 284°
2026-05-06 16:27 31.54682 39.20209 34091 ft 392 kts 284°
2026-05-06 16:27 31.56607 39.14234 34082 ft 391 kts 284°
2026-05-06 16:28 31.58529 39.08260 34084 ft 391 kts 284°
2026-05-06 16:28 31.60431 39.02334 34084 ft 390 kts 284°
2026-05-06 16:29 31.62338 38.96373 34083 ft 390 kts 284°
2026-05-06 16:29 31.64244 38.90419 34083 ft 390 kts 284°
2026-05-06 16:30 31.65516 38.86432 34082 ft 389 kts 284°
2026-05-06 16:30 31.68034 38.78508 34083 ft 389 kts 283°
2026-05-06 16:31 31.69030 38.72417 34081 ft 376 kts 266°
2026-05-06 16:31 31.68261 38.66415 34074 ft 371 kts 256°
2026-05-06 16:32 31.67124 38.60501 34078 ft 371 kts 256°
2026-05-06 16:32 31.65999 38.54586 34070 ft 371 kts 256°
2026-05-06 16:33 31.64877 38.48673 34071 ft 371 kts 256°
2026-05-06 16:34 31.63183 38.39843 34063 ft 371 kts 256°
2026-05-06 16:34 31.62049 38.33935 34061 ft 371 kts 256°
2026-05-06 16:35 31.60910 38.28028 33998 ft 372 kts 256°
2026-05-06 16:35 31.60337 38.25072 33698 ft 372 kts 256°
2026-05-06 16:35 31.59763 38.22116 33417 ft 372 kts 256°
2026-05-06 16:35 31.59186 38.19155 33110 ft 373 kts 256°
2026-05-06 16:36 31.58662 38.16466 32856 ft 374 kts 256°
2026-05-06 16:36 31.58270 38.14456 32666 ft 375 kts 256°
2026-05-06 16:36 31.57689 38.11472 32383 ft 376 kts 256°
2026-05-06 16:36 31.57114 38.08517 32101 ft 377 kts 257°
2026-05-06 16:37 31.56531 38.05515 31822 ft 378 kts 256°
2026-05-06 16:37 31.55945 38.02508 31549 ft 380 kts 257°
2026-05-06 16:37 31.55354 37.99485 31281 ft 381 kts 257°
2026-05-06 16:37 31.54760 37.96451 31009 ft 381 kts 257°
2026-05-06 16:38 31.54165 37.93422 30731 ft 381 kts 257°
2026-05-06 16:38 31.53573 37.90401 30466 ft 380 kts 257°
2026-05-06 16:38 31.52981 37.87390 30214 ft 379 kts 257°
2026-05-06 16:38 31.52389 37.84385 29927 ft 378 kts 257°
2026-05-06 16:39 31.51797 37.81392 29619 ft 377 kts 257°
2026-05-06 16:39 31.51204 37.78401 29312 ft 376 kts 257°
2026-05-06 16:39 31.50613 37.75426 29008 ft 374 kts 257°
2026-05-06 16:39 31.50023 37.72460 28715 ft 373 kts 257°
2026-05-06 16:40 31.49574 37.69471 28410 ft 373 kts 264°
2026-05-06 16:40 31.49521 37.66438 28123 ft 373 kts 268°
2026-05-06 16:40 31.49527 37.63405 27835 ft 372 kts 268°
2026-05-06 16:40 31.49528 37.60420 27549 ft 371 kts 268°
2026-05-06 16:41 31.49526 37.57401 27266 ft 370 kts 268°
2026-05-06 16:41 31.49523 37.54394 26991 ft 369 kts 268°
2026-05-06 16:41 31.49516 37.51391 26712 ft 368 kts 268°
2026-05-06 16:41 31.49506 37.48401 26440 ft 367 kts 268°
2026-05-06 16:42 31.49494 37.45413 26169 ft 366 kts 268°
2026-05-06 16:42 31.49483 37.42434 25905 ft 366 kts 268°
2026-05-06 16:42 31.49474 37.39458 25641 ft 365 kts 268°
2026-05-06 16:42 31.49466 37.36492 25378 ft 364 kts 268°
2026-05-06 16:43 31.49458 37.33526 25106 ft 364 kts 268°
2026-05-06 16:43 31.49454 37.30563 24861 ft 363 kts 268°
2026-05-06 16:43 31.49448 37.27609 24605 ft 362 kts 269°
2026-05-06 16:43 31.49438 37.24661 24351 ft 361 kts 268°
2026-05-06 16:44 31.49423 37.21718 24096 ft 361 kts 268°
2026-05-06 16:44 31.49407 37.18779 23848 ft 360 kts 268°
2026-05-06 16:44 31.49391 37.15850 23594 ft 359 kts 268°
2026-05-06 16:44 31.49377 37.12927 23301 ft 359 kts 269°
2026-05-06 16:45 31.49360 37.10013 23007 ft 357 kts 268°
2026-05-06 16:45 31.49341 37.07104 22715 ft 356 kts 269°
2026-05-06 16:45 31.49328 37.04206 22428 ft 355 kts 270°
2026-05-06 16:45 31.49546 37.01324 22149 ft 356 kts 278°
2026-05-06 16:46 31.50151 36.98517 21860 ft 357 kts 286°
2026-05-06 16:46 31.50959 36.95771 21583 ft 356 kts 286°
2026-05-06 16:46 31.51761 36.93032 21302 ft 355 kts 286°
2026-05-06 16:46 31.52557 36.90298 21006 ft 354 kts 286°
2026-05-06 16:47 31.53336 36.87604 20714 ft 352 kts 286°
2026-05-06 16:47 31.54119 36.84889 20424 ft 351 kts 286°
2026-05-06 16:47 31.54901 36.82182 20141 ft 350 kts 286°
2026-05-06 16:47 31.55682 36.79480 19844 ft 349 kts 286°
2026-05-06 16:48 31.56472 36.76751 19565 ft 348 kts 287°
2026-05-06 16:48 31.57239 36.74104 19289 ft 347 kts 287°
2026-05-06 16:48 31.58015 36.71427 19012 ft 346 kts 287°
2026-05-06 16:48 31.58797 36.68719 18729 ft 345 kts 287°
2026-05-06 16:49 31.59554 36.66089 18464 ft 344 kts 287°
2026-05-06 16:49 31.60320 36.63430 18172 ft 344 kts 287°
2026-05-06 16:49 31.61096 36.60746 17850 ft 342 kts 287°
2026-05-06 16:49 31.61852 36.58140 17551 ft 341 kts 287°
2026-05-06 16:50 31.62617 36.55510 17243 ft 340 kts 287°
2026-05-06 16:50 31.63386 36.52857 16939 ft 339 kts 287°
2026-05-06 16:50 31.64133 36.50282 16643 ft 337 kts 287°
2026-05-06 16:50 31.64887 36.47682 16350 ft 336 kts 287°
2026-05-06 16:51 31.65636 36.45086 16058 ft 335 kts 287°
2026-05-06 16:51 31.66376 36.42499 15757 ft 334 kts 287°
2026-05-06 16:51 31.67107 36.39924 15474 ft 332 kts 287°
2026-05-06 16:51 31.67837 36.37353 15188 ft 331 kts 287°
2026-05-06 16:52 31.68564 36.34795 14907 ft 330 kts 287°
2026-05-06 16:52 31.69289 36.32243 14627 ft 329 kts 287°
2026-05-06 16:52 31.70012 36.29702 14362 ft 327 kts 287°
2026-05-06 16:52 31.70733 36.27171 14111 ft 326 kts 287°
2026-05-06 16:53 31.71452 36.24651 13853 ft 325 kts 287°
2026-05-06 16:53 31.72169 36.22136 13570 ft 324 kts 287°
2026-05-06 16:53 31.72881 36.19631 13297 ft 323 kts 287°
2026-05-06 16:53 31.73590 36.17132 13004 ft 321 kts 287°
2026-05-06 16:54 31.74317 36.14657 12726 ft 320 kts 289°
2026-05-06 16:54 31.75133 36.12230 12449 ft 319 kts 290°
2026-05-06 16:54 31.75997 36.09837 12180 ft 317 kts 291°
2026-05-06 16:54 31.76871 36.07469 11908 ft 316 kts 291°
2026-05-06 16:55 31.77741 36.05109 11638 ft 314 kts 291°
2026-05-06 16:55 31.78599 36.02753 11374 ft 313 kts 291°
2026-05-06 16:55 31.79445 36.00407 11108 ft 311 kts 291°
2026-05-06 16:55 31.80281 35.98066 10844 ft 309 kts 290°
2026-05-06 16:56 31.81107 35.95739 10582 ft 307 kts 290°
2026-05-06 16:56 31.81924 35.93427 10326 ft 306 kts 290°
2026-05-06 16:56 31.82740 35.91119 10099 ft 305 kts 290°
2026-05-06 16:56 31.83543 35.88851 9872 ft 295 kts 290°
2026-05-06 16:57 31.84319 35.86662 9631 ft 286 kts 290°
2026-05-06 16:57 31.85074 35.84531 9388 ft 278 kts 290°
2026-05-06 16:57 31.85805 35.82461 9157 ft 271 kts 290°
2026-05-06 16:57 31.86520 35.80434 8922 ft 265 kts 290°
2026-05-06 16:58 31.87222 35.78440 8670 ft 264 kts 290°
2026-05-06 16:58 31.87925 35.76441 8458 ft 264 kts 290°
2026-05-06 16:58 31.88628 35.74441 8261 ft 264 kts 290°
2026-05-06 16:58 31.89330 35.72447 8093 ft 264 kts 291°
2026-05-06 16:59 31.90035 35.70448 8003 ft 264 kts 291°
2026-05-06 16:59 31.90736 35.68452 7912 ft 264 kts 291°
2026-05-06 16:59 31.91437 35.66458 7842 ft 263 kts 291°
2026-05-06 16:59 31.92138 35.64469 7759 ft 262 kts 291°
2026-05-06 17:00 31.92770 35.62455 7681 ft 263 kts 284°
2026-05-06 17:00 31.93096 35.60349 7591 ft 261 kts 274°
2026-05-06 17:00 31.93162 35.58218 7529 ft 261 kts 271°
2026-05-06 17:00 31.93212 35.56083 7449 ft 260 kts 271°
2026-05-06 17:01 31.93265 35.53950 7375 ft 260 kts 271°
2026-05-06 17:01 31.93406 35.51868 7298 ft 251 kts 279°
2026-05-06 17:01 31.93848 35.49889 7215 ft 250 kts 288°
2026-05-06 17:01 31.94421 35.47946 7150 ft 252 kts 288°
2026-05-06 17:02 31.94990 35.45992 7070 ft 253 kts 288°
2026-05-06 17:02 31.95558 35.44028 7013 ft 253 kts 288°
2026-05-06 17:02 31.96125 35.42059 6923 ft 254 kts 288°
2026-05-06 17:02 31.96691 35.40092 6853 ft 253 kts 288°
2026-05-06 17:03 31.97255 35.38130 6779 ft 253 kts 288°
2026-05-06 17:03 31.97815 35.36173 6702 ft 251 kts 288°
2026-05-06 17:03 31.98369 35.34233 6632 ft 250 kts 288°
2026-05-06 17:03 31.98923 35.32305 6553 ft 248 kts 287°
2026-05-06 17:04 31.99475 35.30381 6440 ft 248 kts 288°
2026-05-06 17:04 32.00020 35.28484 6194 ft 242 kts 288°
2026-05-06 17:04 32.00565 35.26624 5975 ft 238 kts 291°
2026-05-06 17:04 32.01335 35.24938 5738 ft 235 kts 303°
2026-05-06 17:05 32.02391 35.23456 5517 ft 232 kts 308°
2026-05-06 17:05 32.03093 35.21861 5375 ft 217 kts 281°
2026-05-06 17:05 32.03057 35.20122 5223 ft 207 kts 257°
2026-05-06 17:05 32.02454 35.18632 5078 ft 199 kts 236°
2026-05-06 17:06 32.01469 35.17592 4978 ft 190 kts 217°
2026-05-06 17:06 32.00350 35.16802 4848 ft 184 kts 216°
2026-05-06 17:06 31.99266 35.16025 4704 ft 182 kts 217°
2026-05-06 17:06 31.98174 35.15237 4582 ft 181 kts 217°
2026-05-06 17:07 31.97119 35.14476 4435 ft 179 kts 218°
2026-05-06 17:07 31.96074 35.13723 4289 ft 172 kts 217°
2026-05-06 17:07 31.95054 35.12989 4137 ft 168 kts 218°
2026-05-06 17:07 31.94072 35.12284 4012 ft 167 kts 217°
2026-05-06 17:08 31.93078 35.11569 3884 ft 168 kts 217°
2026-05-06 17:08 31.92084 35.10854 3762 ft 167 kts 217°
2026-05-06 17:08 31.91103 35.10104 3613 ft 168 kts 227°
2026-05-06 17:08 31.90514 35.08972 3497 ft 155 kts 259°
2026-05-06 17:09 31.90517 35.07772 3375 ft 147 kts 285°
2026-05-06 17:09 31.90984 35.06707 3292 ft 146 kts 300°
2026-05-06 17:09 31.91512 35.05706 3228 ft 143 kts 299°
2026-05-06 17:09 31.92023 35.04717 3190 ft 139 kts 300°
2026-05-06 17:10 31.92522 35.03758 3082 ft 136 kts 301°
2026-05-06 17:10 31.93017 35.02810 2912 ft 134 kts 300°
2026-05-06 17:10 31.93493 35.01896 2753 ft 133 kts 299°
2026-05-06 17:10 31.93981 35.00960 2553 ft 134 kts 299°
2026-05-06 17:11 31.94466 35.00030 2375 ft 133 kts 298°
2026-05-06 17:11 31.94952 34.99099 2179 ft 136 kts 301°
2026-05-06 17:11 31.95451 34.98144 1984 ft 138 kts 301°
2026-05-06 17:11 31.95950 34.97187 1788 ft 136 kts 301°
2026-05-06 17:12 31.96448 34.96231 1588 ft 138 kts 301°
2026-05-06 17:12 31.96949 34.95272 1382 ft 137 kts 301°
2026-05-06 17:12 31.97445 34.94319 1196 ft 136 kts 303°
2026-05-06 17:12 31.97943 34.93371 999 ft 135 kts 303°
2026-05-06 17:13 31.98437 34.92423 746 ft 136 kts 303°
2026-05-06 17:13 31.98924 34.91487 570 ft 132 kts 303°
2026-05-06 17:13 31.99394 34.90574 391 ft 130 kts 304°
2026-05-06 17:13 31.99872 34.89665 220 ft 131 kts 303°
2026-05-06 17:14 32.00339 34.88767 125 ft 120 kts 302°
2026-05-06 17:14 32.00725 34.88054 120 ft 87 kts 300°
2026-05-06 17:14 32.00945 34.87594 120 ft 34 kts 300°
2026-05-06 17:14 32.01026 34.87416 118 ft 22 kts 289°
2026-05-06 17:15 32.01062 34.87239 121 ft 22 kts 275°
2026-05-06 17:15 32.01062 34.87084 120 ft 14 kts 255°
2026-05-06 17:15 32.01002 34.87061 118 ft 8 kts 143°
2026-05-06 17:15 32.00966 34.87117 118 ft 8 kts 147°
2026-05-06 17:16 32.00912 34.87113 119 ft 6 kts 178°
2026-05-06 17:16 32.00874 34.87146 119 ft 8 kts 123°
2026-05-06 17:16 32.00842 34.87205 119 ft 9 kts 122°
2026-05-06 17:16 32.00804 34.87276 119 ft 11 kts 121°
2026-05-06 17:17 32.00762 34.87359 118 ft 13 kts 121°
2026-05-06 17:17 32.00718 34.87445 119 ft 9 kts 121°
2026-05-06 17:17 32.00685 34.87477 118 ft 5 kts 180°
2026-05-06 17:17 32.00651 34.87457 120 ft 6 kts 220°
2026-05-06 17:18 32.00626 34.87430 119 ft 3 kts 220°
2026-05-06 17:18 32.00625 34.87429 118 ft 0 kts 220°